www.pogodaiklimat.ru

Погода и климат >> Архив погоды >> Россия >> Забайкальский край >> Менза


ПОГОДА в Мензе

  • Прогноз погоды в Мензе
  • Монитор погоды в Мензе

АРХИВ ПОГОДЫ в Мензе

Время (UTC), дата Ветер
(напр.,м/с)
 
Видим.   Явления Облачность Т
(С)
Тd
(С)
f
(%)
Тe
(С)
Тes
(С)
Комфортность P
(гПа)
Po
(гПа)
Тmin
(С)
Tmax
(С)
R
(мм)
R24
(мм)
S
(см)
00 15.09 Ю 1 50 км 10/10 300 м
[St]
-0.3 -0.7 97 -3 -3 1025.2 913.3 -1.4 2
03 15.09 В 2 50 км 6/6 1000 м
[Cb cap]
+6.4 -0.3 62 +4 +8 1022.4 913.3
06 15.09 З 5 50 км 6/4 1000 м
[Cu med, cong Ci ing]
+10.6 -2.8 39 +8 +10 1017.9 910.7
09 15.09 З 2 50 км 5/0
[Ac trans Ci ing]
+12.6 -2.5 35 +12 +13 1015.5 909.3
12 15.09 ЮВ 1 50 км ясно +4.6 -0.2 71 +4 +4 1018.8 909.4 +13.6
15 15.09 ЮВ 1 50 км ясно -0.7 -2.1 90 -3 -3 1022.5 910.7
18 15.09 штиль 0 50 км 5/0
[Ac trans]
-3.2 -3.9 95 -4 -4 1023.7 910.7
21 15.09 Ю 1 50 км 8/0
[Ac trans]
-1.2 -2.0 94 -3 -3 1021.2 909.3
00 16.09 штиль 0 50 км 3/0
[Ac lent]
+0.9 -1.2 86 -0 +1 1019.4 908.5 -3.3
03 16.09 штиль 0 50 км 2 балла +10.4 +1.2 53 +10 +19 1014.9 908.0
06 16.09 З 7-11
{11}
50 км 8/6 1000 м
[Cu med, cong Ac lent Ci fib]
+18.2 -1.0 27 +18 +18 1008.3 904.8
09 16.09 З 5 50 км 7 баллов +17.4 +0.1 31 +17 +17 1009.2 905.3
12 16.09 Ю 1
{10}
50 км 4/3 1000 м
[Cb cap Ac lent]
+9.1 +2.6 64 +9 +9 1013.8 906.6 +18.9
15 16.09 ЮЗ 2
{14}
50 км 10/10 1000 м
[Cb cap]
+6.1 +2.6 78 +4 +4 1021.1 912.0
18 16.09 З 1 50 км {ливн. осадки} 8/8 1000 м
[Cb cap]
+4.4 +2.3 86 +3 +3 1024.8 914.7
21 16.09 З 4 50 км 3/1 1000 м
[Cu med, cong Ci fib]
+0.8 -1.4 85 -4 -4 1029.3 917.3
00 17.09 штиль 0 50 км 8/3 1000 м
[Cb cap Ac trans]
+0.5 -1.8 85 -1 0 1030.7 918.5 -2.1 0.5
03 17.09 ЮЗ 2 50 км 5 баллов +8.4 -1.7 49 +7 +11 1029.2 920.0
06 17.09 З 5-10
{10}
50 км 5/3 1000 м
[Cu hum Ci fib]
+12.2 -3.6 33 +10 +13 1024.3 917.0
12 17.09 Ю 2 50 км ясно +5.4 +0.9 73 +3 +3 1027.5 917.5 +13.3
15 17.09 штиль 0 50 км ясно +0.8 -0.8 89 -0 -0 1030.9 918.7
18 17.09 штиль 0 н/о ясно -2.4 -3.2 94 -4 -4 1033.8 920.0
21 17.09 штиль 0 50 км ясно -3.4 -4.1 95 -5 -5 1032.7 918.7
00 18.09 штиль 0 50 км 10/10 300 м
[St]
-0.8 -1.2 97 -2 -2 1030.6 917.9 -3.8
03 18.09 штиль 0 50 км 6 баллов +6.7 +1.6 70 +6 +10 1025.3 916.0
06 18.09 штиль 0 50 км 10/0
[Ac As]
+15.5 +2.3 41 +15 +15 1017.3 912.0
09 18.09 ЮВ 1 50 км 10 баллов +18.1 +4.6 41 +19 +19 1014.9 910.7
12 18.09 В 1 50 км 10/6 1000 м
[Cb cap Ac As]
+14.6 +4.9 52 +15 +15 1017.3 911.7 +18.8
15 18.09 штиль 0 50 км 1/0
[Ac trans]
+5.5 +3.3 86 +5 +5 1022.7 913.3
18 18.09 штиль 0 50 км ясно +0.5 -0.4 94 -1 -1 1026.5 914.7
21 18.09 Ю 1 50 км ясно -2.2 -2.8 96 -5 -5 1027.7 914.7
00 19.09 штиль 0 50 км 8/8 600 м
[St]
+0.3 -0.2 96 -1 -1 1027.1 915.2 -3.1
03 19.09 штиль 0 50 км 8/3 1000 м
[Cu hum Ac lent Ci]
+11.9 +3.9 58 +12 +15 1021.7 914.7
06 19.09 ЮВ 1 50 км 7 баллов +20.4 +1.3 28 +22 +25 комфорт 1015.5 912.0
09 19.09 С 3
{10}
50 км 8/5 1000 м
[Cu med, cong Ac lent Ci fib]
+17.8 +3.7 39 +18 +18 1016.4 912.0
12 19.09 штиль 0
{11}
50 км 4/0
[Ac lent]
+10.7 +4.3 65 +10 +10 1021.3 913.9 +21.4
15 19.09 Ю 1 50 км 1/0
[Ac trans]
+2.8 +1.3 90 +1 +1 1026.9 916.0
18 19.09 ЮВ 1 50 км ясно -0.3 -1.0 95 -3 -3 1028.5 916.2
00 20.09 штиль 0 50 км 10/10 200 м
[St]
+1.1 +0.7 97 -0 -0 1030.5 918.6 -1.5
03 20.09 З 1 50 км 7 баллов +9.9 +4.7 70 +10 +12 1027.0 918.7
06 20.09 ЮВ 1 50 км 7 баллов +16.9 +2.9 39 +18 +21 1021.3 916.0
09 20.09 СВ 2 50 км 5 баллов +18.7 +2.5 34 +19 +20 1020.6 916.0
12 20.09 Ю 1 50 км 3/0
[Ci fib]
+8.0 +3.4 73 +7 +7 1024.1 915.5 +19.5
15 20.09 штиль 0 50 км ясно +1.9 +0.6 91 +1 +1 1028.8 917.3
18 20.09 Ю 1 50 км ясно -0.6 -1.3 95 -3 -3 1029.9 917.3
00 21.09 штиль 0 50 км 10/10 300 м
[St]
-0.5 -1.0 96 -2 -2 1030.4 917.8 -3.2
03 21.09 З 1 50 км ясно +11.2 +3.7 60 +11 +20 1024.9 917.3
06 21.09 С 1 50 км 1 балл +21.2 +4.7 34 +22 +30 комфорт 1018.2 914.7
09 21.09 С 1 50 км 2 балла +24.1 +3.4 26 +23 +25 комфорт 1015.6 913.3
12 21.09 Ю 1 50 км ясно +9.6 +5.2 74 +9 +9 1020.8 913.2 +24.8
15 21.09 штиль 0 50 км ясно +4.2 +2.2 87 +3 +3 1026.3 916.0
18 21.09 штиль 0 50 км ясно +0.7 -0.2 94 -1 -1 1027.9 916.0
21 21.09 Ю 1 50 км ясно -1.3 -2.0 95 -4 -4 1030.2 917.3

 

Местоположение метеостанции Менза (Забайкальский край, Россия): широта 49.43 долгота 108.80 высота над уровнем моря 936 м.

В архиве по умолчанию представлена погода в Мензе за последнюю неделю. Архивные данные за месяц целиком и за предыдущие месяцы, начиная с января 2011 года, Вы можете получить, выбрав интересующий диапазон дат из раскрывающегося списка и нажав кнопку "Ввод!".


*Определитесь, кто Вы:
робот инопланетянин человек

Внимание! Время в таблицах - всемирное. Для получения местного времени необходимо прибавить поправку, которая равна 9 ч.

Смотрите также архив погоды в соседних городах и на ближайших метеорологических станциях:

Погода в Улыгайин Дуганг (Монголия) (89 км)
Погода в Красном Чикое (Забайкальский край, Россия) (105 км)
Погода в Хадатыне (Монголия) (116 км)
Погода в Черемхово (Забайкальский край, Россия) (158 км)
Погода в Биндэре (Монголия) (159 км)
Погода в Бичуре (Бурятия, Россия) (160 км)
Погода в Букукуне (Забайкальский край, Россия) (166 км)
Погода в Мухоршибири (Бурятия, Россия) (192 км)
Погода в Кяхте (Бурятия, Россия) (201 км)
Погода в Татаале (Монголия) (203 км)

Пояснения к столбцам:

Ветер - указаны скорость ветра в м/с - средняя за 10 мин, порывы в срок и между сроками (в фигурных скобках) и направление, откуда дует ветер: С - северный, СВ - северо-восточный, В - восточный, ЮВ - юго-восточный, Ю - южный, ЮЗ - юго-западный, З - западный, СЗ - северо-западный.
Видимость - горизонтальная дальность видимости в метрах или километрах. При видимости от 1 до 10 км при отсутствии осадков обычно наблюдается дымка, при ухудшении видимости до 1 км и менее - туман. В сухую погоду видимость может ухудшаться дымом, пылью или мглою.
Явления - указаны атмосферные явления, наблюдавшиеся в срок или в последний час перед сроком; фигурными скобками обозначены явления, наблюдавшиеся между сроками (за 1-3 часа до срока); квадратными скобками обозначены град или гололедные отложения с указанием их диаметра в мм.
Облачность - указаны через наклонную черту общая и нижняя облачность в баллах и высота нижней границы облаков в метрах; квадратными скобками обозначены формы облаков: Ci - перистые, Cs - перисто-слоистые, Cc - перисто-кучевые, Ac - высококучевые, As - высокослоистые, Sc - слоисто-кучевые, Ns - слоисто-дождевые, Cu - кучевые, Cb - кучево-дождевые. Подробнее классификацию облаков см. в Атласе облаков (PDF).
T - Температура воздуха - температура, измеренная на высоте 2 м над землей.
Td - Температура точки росы - температура, при понижении до которой содержащийся в воздухе водяной пар достигнет насыщения.
f - Относительная влажность воздуха - влажноcть воздуха, измеренная на высоте 2 м над землей.
Te - Эффективная температура - температура, которую ощущает одетый по сезону человек в тени. Характеристика душности погоды. При расчете учитывается влияние влажности воздуха и скорости ветра на теплоощущения человека.
Tes - Эффективная температура на солнце - температура, которую ощущает человек, с поправкой на солнечный нагрев. Характеристика знойности погоды. Зависит от высоты солнца над горизонтом, облачности и скорости ветра. Ночью, в пасмурную погоду, а также при ветре 12 м/с и более поправка равна нулю.
P - Атмосферное давление - приведенное к уровню моря атмосферное давление.
Po - Атмосферное давление - измеренное на уровне метеостанции атмосферное давление.
Tmin - Минимальная температура - минимум температуры воздуха на высоте 2 м над землей.
Tmax - Максимальная температура - максимум температуры воздуха на высоте 2 м над землей.
R - Количество осадков - Количество выпавших осадков за период времени, мм. При наведении курсора мыши на число - период времени, за который выпало указанное количество осадков.
R24 - Количество осадков - Количество выпавших осадков за 24 часа, мм.
S - Снежный покров - Высота снежного покрова, см. При наведении курсора мыши на число - состояние снежного покрова и степень покрытия местности в баллах.